This is the latest recevied weather packets stored in our database for station/object KC3VCX. If no packets are shown the sender has not sent any weather packets the latest 10 day(s).
| Time | Temp. | Humidity | Pressure | Rain* | Wind** | Luminosity | Snow |
|---|---|---|---|---|---|---|---|
| 1777664915 | 9.44° C | 78% | 1013.3 hPa | 0 mm | - | 219 W/m² | - |
| 1777664612 | 8.89° C | 76% | 1013.5 hPa | 0 mm | - | 230 W/m² | - |
| 1777664308 | 9.44° C | 75% | 1013.4 hPa | 0 mm | - | 115 W/m² | - |
| 1777664006 | 9.44° C | 75% | 1013.5 hPa | 0 mm | - | 141 W/m² | - |
| 1777663704 | 9.44° C | 77% | 1013.5 hPa | 0 mm | - | 237 W/m² | - |
| 1777663400 | 9.44° C | 78% | 1013.4 hPa | 0 mm | - | 171 W/m² | - |
| 1777663097 | 9.44° C | 78% | 1013.4 hPa | 0 mm | - | 188 W/m² | - |
| 1777662794 | 10° C | 79% | 1013.4 hPa | 1.27 mm | - | 249 W/m² | - |
| 1777662491 | 9.44° C | 79% | 1013.7 hPa | 1.27 mm | - | 249 W/m² | - |
| 1777662187 | 9.44° C | 79% | 1013.6 hPa | 0 mm | - | 200 W/m² | - |
| 1777661883 | 8.89° C | 76% | 1013.8 hPa | 0 mm | - | 98 W/m² | - |
| 1777661579 | 8.89° C | 76% | 1013.8 hPa | 0 mm | - | 133 W/m² | - |
| 1777661275 | 8.89° C | 75% | 1013.6 hPa | 0 mm | - | 136 W/m² | - |
| 1777660970 | 9.44° C | 77% | 1013.5 hPa | 0 mm | - | 133 W/m² | - |
| 1777660667 | 9.44° C | 76% | 1013.5 hPa | 0 mm | - | 118 W/m² | - |
| 1777660364 | 9.44° C | 74% | 1013.7 hPa | 0 mm | - | 120 W/m² | - |
| 1777660060 | 9.44° C | 74% | 1013.5 hPa | 0 mm | - | 181 W/m² | - |
| 1777659757 | 10° C | 76% | 1013.4 hPa | 0 mm | - | 161 W/m² | - |
| 1777659454 | 10.56° C | 80% | 1013.4 hPa | 0 mm | - | 431 W/m² | - |
| 1777659152 | 9.44° C | 82% | 1013.1 hPa | 0 mm | - | 875 W/m² | - |
| 1777658849 | 8.89° C | 82% | 1013.5 hPa | 1.78 mm | - | 774 W/m² | - |
| 1777658544 | 8.33° C | 83% | 1013.7 hPa | 1.78 mm | - | 254 W/m² | - |
| 1777658242 | 8.33° C | 81% | 1013.7 hPa | 0 mm | - | 136 W/m² | - |
| 1777657939 | 8.33° C | 80% | 1013.6 hPa | 1.27 mm | - | 95 W/m² | - |
| 1777657635 | 8.89° C | 80% | 1013.6 hPa | 1.27 mm | - | 76 W/m² | - |
* Rain latest hour (hover to see other rain measurements)
** Current wind speed in m/s (hover to see current wind gust speed)